Regional Weather Roundup
Issued by NWS

Home | Current Version | Previous Version | Text Only | Print | Product List | Glossary On
Versions: 1 2 3 4 5 6 7 8 9 10 11 12 13 14 15 16 17 18 19 20 21 22 23 24 25 26 27 28 29 30 31 32 33 34 35 36 37 38 39 40 41 42 43 44 45 46 47 48 49 50
000
ASUS45 KBOU 310207
RWRCO

WEATHER ROUNDUP FOR COLORADO
NATIONAL WEATHER SERVICE DENVER/BOULDER CO
800 PM MDT SUN AUG 30 2015

NOTE: "FAIR" INDICATES FEW OR NO CLOUDS BELOW 12000 FEET WITH NO
SIGNIFICANT WEATHER AND/OR OBSTRUCTIONS TO VISIBILITY.

COZ001>005-013-030-031-310300-
...NORTHWEST COLORADO...

CITY           SKY/WX    TMP DP  RH WIND       PRES   REMARKS
CRAIG          CLOUDY    64  51  62 S15       30.16R
HAYDEN         NOT AVBL
MEEKER         CLOUDY    65  53  65 E15G24    30.14F
MOUNT WERNER   NOT AVBL
STEAMBOAT SPGS CLOUDY    60  50  69 N7        30.22F
WALDEN         CLOUDY    59  45  58 NW15      30.26R
$$

COZ006>008-011-310300-
...WEST CENTRAL VALLEYS...

CITY           SKY/WX    TMP DP  RH WIND       PRES   REMARKS
GRAND JUNCTION LGT RAIN  62  59  90 NW16      30.09R
MONTROSE       LGT RAIN  71  53  52 S17       30.12R
EAGLE          CLOUDY    72  45  37 W5        30.17S
RIFLE          CLOUDY    75  46  35 N7        30.07S
DELTA          CLOUDY    78  51  38 E10       30.05R
NUCLA          CLOUDY    73  46  38 SW18G33   30.15R
$$

COZ017>023-064>068-310300-
...SOUTHWEST COLORADO...

CITY           SKY/WX    TMP DP  RH WIND       PRES   REMARKS
DURANGO        CLOUDY    74  43  32 W14       30.18R
CORTEZ         CLEAR     67  54  63 W13G24    30.17R
PAGOSA SPRINGS CLOUDY    71  40  32 W6        30.25R
TELLURIDE      CLOUDY    62  45  54 E3        30.40R
WOLF CREEK PAS PTCLDY    52  36  54 SW12      30.60S
$$

COZ009-010-012-014-032>034-037-058>063-310300-
...CENTRAL COLORADO...

CITY           SKY/WX    TMP DP  RH WIND       PRES   REMARKS
ASPEN          CLOUDY    68  44  42 SE10      30.23F
BUENA VISTA    MOCLDY    70  37  29 W14G21    30.23R
COPPER MTN     LGT RAIN  55  36  47 W24G33    30.58R
BERTHOUD PASS  TSTM      43  32  65 SW17G26   30.66R
COTTONWOOD PAS MOCLDY    64  32  29 W12G20    30.39S
GUNNISON       PTCLDY    64  45  48 NE6       30.27F
KREMMLING      CLOUDY    70  37  30 N5        30.22R
LEADVILLE      MOCLDY    57  39  51 N7        30.41R
MONARCH PASS   PTCLDY    52  36  54 W17       30.67F
SALIDA         MOCLDY    72  38  28 SW12      30.27S
SUNLIGHT       CLOUDY    55  39  54 CALM      30.50S
WILKERSON PASS PTCLDY    57  32  38 S7        30.52S
$$

COZ069>075-310300-
...SAN LUIS VALLEY/SANGRE DE CRISTO MOUNTAINS...

CITY           SKY/WX    TMP DP  RH WIND       PRES   REMARKS
ALAMOSA        PTCLDY    68  44  42 NW7       30.20F
LA VETA PASS   PTCLDY    61  32  33 SW3       30.42S
SAGUACHE       NOT AVBL
$$

COZ035-036-038>040-310300-
...NORTHERN COLORADO FRONT RANGE...

CITY           SKY/WX    TMP DP  RH WIND       PRES   REMARKS
DENVER INTL AP PTCLDY    78  39  24 SE10      29.96R
DMNS CITY PARK   N/A     83  39  20 E9G15     29.96R
AURORA         PTCLDY    80  40  23 SE13      29.99R
FRONT RANGE AP NOT AVBL
ERIE MUNI ARPT PTCLDY    83  37  19 S3        29.94R
BOULDER MUN AP PTCLDY    88  34  14 S7        29.95S
CENTENNIAL     PTCLDY    79  40  24 S12       30.00S
BROOMFIELD     PTCLDY    84  37  18 W13       30.00R
FORT COLLINS   PTCLDY    82  45  26 N7        29.93R
LONGMONT       PTCLDY    87  36  16 SW5       29.95S
$$

COZ041-046-047-076>085-087-088-310300-
...PIKES PEAK/PALMER DIVIDE AND SOUTHERN FOOTHILLS...

CITY           SKY/WX    TMP DP  RH WIND       PRES   REMARKS
COLO. SPRINGS  PTCLDY    77  39  25 SE8       30.07S
A. F. ACADEMY  PTCLDY    75  38  26 SW5       30.09R
ELLICOTT       NOT AVBL
FALCON         CLEAR     71  39  31 MISG      30.14S
FORT CARSON    PTCLDY    78  42  26 SW5       30.03R
LIMON          CLEAR     76  47  35 SE13      30.02R
MONUMENT HILL  CLEAR     68  36  30 S10       30.14S
TRINIDAD       CLEAR     80  45  28 S13       30.04R
$$

COZ042>045-048>051-090-091-310300-
...NORTHEAST COLORADO...

CITY           SKY/WX    TMP DP  RH WIND       PRES   REMARKS
GREELEY ARPT   CLEAR     81  45  28 SE6       29.92R
AKRON          CLEAR     82  46  28 SE16      29.95R
BURLINGTON     CLEAR     76  47  35 S13       29.99R
WRAY           CLOUDY    83  42  23 SE18      29.92R
STERLING       CLEAR     84  46  26 S12       29.87R
HOLYOKE        CLEAR     81  45  28 S13       29.90R
FORT MORGAN    CLEAR     80  44  28 S6        29.91S
$$

COZ086-089-092>099-310300-
...SOUTHEAST COLORADO...

CITY           SKY/WX    TMP DP  RH WIND       PRES   REMARKS
PUEBLO         CLEAR     86  42  21 SE12      29.92S
LA JUNTA       CLEAR     87  48  25 SE14      29.92S
LAMAR          CLEAR     81  49  32 SE16      29.91R
SPRINGFIELD    NOT AVBL
$$



USA.gov is the U.S. government's official web portal to all federal, state and local government web resources and services.